{"data":{"norad_id":56002,"intl_designator":"2023-042S","name":"STARLINK-5799","alt_names":[],"object_type":"PAYLOAD","status":"ACTIVE","operator":null,"country":"US","launch_date":"2023-03-24","launch_site_code":"AFETR","launch_vehicle":null,"mission":null,"orbit_class":"UNKNOWN","rcs_meters":null,"size_class":null,"mass_kg":null,"dimensions":null,"purposes":["comms"],"wikipedia_slug":null,"has_3d_model":false,"image_url":null,"decayed_at":null,"tle_current":{"epoch":"2026-05-24T21:12:31.709376Z","epoch_age_seconds":92000,"freshness":"FRESH","line1":"1 56002U 23042S   26144.88370034 -.00000162  00000+0  36342-5 0  9996","line2":"2 56002  43.0062 349.1838 0001547 264.6101  95.4574 15.27575443174529","mean_motion":15.27575443,"eccentricity":0.0001547,"inclination_deg":43.0062,"raan_deg":349.1838,"arg_perigee_deg":264.6101,"mean_anomaly_deg":95.4574,"bstar":3.6342e-6,"rev_number":17452,"period_min":94.267029926325,"perigee_km":482.00131377096,"apogee_km":484.12416897094,"semimajor_km":6861.1997413709,"source":"CELESTRAK","updated_at":"2026-05-25T13:38:17.924622Z"}}}